[Date Prev][Date Next][Thread Prev][Thread Next] - [Date Index][Thread Index][Author Index]
2 Line ISS Keps 9-23
- Subject: [sarex] 2 Line ISS Keps 9-23
- From: "Dave Larsen PhD" <doc@xxxxxxxxxxx>
- Date: Thu, 23 Sep 2004 03:19:14 -0700
ISS
1 25544U 98067A 04267.25740987 .00018296 00000-0 15333-3 0 7487
2 25544 51.6345 185.1680 0005530 180.5417 318.5688 15.70010337333728
----
Via the sarex mailing list at AMSAT.ORG courtesy of AMSAT-NA.
To unsubscribe, send "unsubscribe sarex" to Majordomo@amsat.org
AMSAT Home